SV7RNH Weather Reports


Display with metric or nautical units.
time (UTC)temp
F
wind
direction
speed
MPH
gust
MPH
rain 1hr
in
rain 24hr
in
rain mn
in
humidity
%
barometer
mb
20260903033004 74 95 2.0 4.0 0.00 0.00 0.00 64 1016.4
20260903032504 74 77 2.0 7.0 0.00 0.00 0.00 65 1016.4
20260903032003 74 63 2.0 7.0 0.00 0.00 0.00 65 1016.4
20260903031503 74 70 2.0 11.0 0.00 0.00 0.00 65 1016.4
20260903031004 74 55 1.0 11.0 0.00 0.00 0.00 65 1016.5
20260903030503 74 35 4.0 11.0 0.00 0.00 0.00 65 1016.5
20260903030003 74 30 2.0 11.0 0.00 0.00 0.00 65 1016.5
20260903025503 75 49 4.0 11.0 0.00 0.00 0.00 64 1016.6
20260903025004 75 65 5.0 11.0 0.00 0.00 0.00 64 1016.6
20260903024503 75 59 2.0 11.0 0.00 0.00 0.00 63 1016.5
20260903024003 76 29 2.0 8.0 0.00 0.00 0.00 62 1016.6
20260903023503 76 25 2.0 8.0 0.00 0.00 0.00 61 1016.4
20260903023004 76 68 2.0 5.0 0.00 0.00 0.00 60 1016.5
20260903022504 76 87 2.0 4.0 0.00 0.00 0.00 60 1016.6
20260903022004 76 40 1.0 4.0 0.00 0.00 0.00 59 1016.4
20260903021503 76 36 1.0 4.0 0.00 0.00 0.00 59 1016.4
20260903021004 76 48 1.0 4.0 0.00 0.00 0.00 58 1016.4
20260903020503 77 0 0.0 5.0 0.00 0.00 0.00 58 1016.4
20260903020003 77 0 0.0 5.0 0.00 0.00 0.00 57 1016.3
20260903015503 77 39 2.0 9.0 0.00 0.00 0.00 57 1016.3
20260903015004 78 61 1.0 9.0 0.00 0.00 0.00 56 1016.1
20260903014503 78 154 2.0 8.0 0.00 0.00 0.00 55 1016.0
20260903014003 78 199 2.0 7.0 0.00 0.00 0.00 56 1015.8
20260903013504 78 272 2.0 6.0 0.00 0.00 0.00 56 1015.9
20260903013003 78 241 2.0 5.0 0.00 0.00 0.00 56 1015.8
20260903012503 78 199 2.0 4.0 0.00 0.00 0.00 57 1015.9
20260903012003 78 0 0.0 6.0 0.00 0.00 0.00 56 1015.8
20260903011503 78 0 0.0 8.0 0.00 0.00 0.00 56 1015.9
20260903011004 78 169 2.0 10.0 0.00 0.00 0.00 55 1016.0
20260903010503 78 124 2.0 17.0 0.00 0.00 0.00 54 1016.1
20260903010003 78 115 4.0 17.0 0.00 0.00 0.00 55 1015.9
20260903005503 78 114 6.0 16.0 0.00 0.00 0.00 57 1016.0
20260903005004 78 123 6.0 11.0 0.00 0.00 0.00 57 1016.1
20260903004504 78 117 2.0 11.0 0.00 0.00 0.00 57 1016.2
20260903004003 78 230 1.0 7.0 0.00 0.00 0.00 57 1016.8
20260903003503 78 282 3.0 7.0 0.00 0.00 0.00 57 1017.1
20260903003004 78 86 1.0 11.0 0.00 0.00 0.00 57 1017.0
20260903002503 78 76 1.0 15.0 0.00 0.00 0.00 57 1016.8
20260903002003 78 63 4.0 15.0 0.00 0.00 0.00 58 1016.8
20260903001503 77 85 4.0 11.0 0.00 0.00 0.00 59 1016.7
20260903001003 77 102 3.0 10.0 0.00 0.00 0.00 60 1016.6
20260903000504 77 108 3.0 10.0 0.00 0.00 0.00 61 1016.5
20260903000003 77 85 3.0 12.0 0.00 0.00 0.00 62 1016.7
20260902235504 77 81 2.0 12.0 0.00 0.00 0.00 62 1016.8
20260902235003 77 123 4.0 11.0 0.00 0.00 0.00 62 1016.8
20260902234503 77 95 4.0 13.0 0.00 0.00 0.00 62 1016.9
20260902234004 77 87 4.0 14.0 0.00 0.00 0.00 62 1016.7
20260902233503 77 126 4.0 14.0 0.00 0.00 0.00 62 1016.9
20260902233003 77 110 4.0 12.0 0.00 0.00 0.00 63 1016.8
20260902232503 77 64 3.0 12.0 0.00 0.00 0.00 63 1016.9
20260902232004 77 80 3.0 12.0 0.00 0.00 0.00 64 1017.0
20260902231503 76 70 3.0 11.0 0.00 0.00 0.00 64 1017.1
20260902231005 76 352 3.0 12.0 0.00 0.00 0.00 64 1017.2
20260902230503 76 19 4.0 17.0 0.00 0.00 0.00 64 1017.4
20260902230004 76 54 6.0 17.0 0.00 0.00 0.00 63 1017.3
20260902225503 76 73 6.0 13.0 0.00 0.00 0.00 64 1017.3
20260902225003 76 41 4.0 18.0 0.00 0.00 0.00 65 1017.2
20260902224504 76 33 4.0 18.0 0.00 0.00 0.00 65 1017.3
20260902224004 76 47 8.0 17.0 0.00 0.00 0.00 64 1017.7
20260902223503 76 93 8.0 17.0 0.00 0.00 0.00 64 1017.7
20260902223003 76 126 7.0 17.0 0.00 0.00 0.00 64 1017.8
20260902222504 76 74 6.0 15.0 0.00 0.00 0.00 65 1017.6
20260902222004 76 40 4.0 15.0 0.00 0.00 0.00 65 1017.5
20260902221503 77 12 6.0 17.0 0.00 0.00 0.00 66 1017.5
20260902221003 77 4 6.0 17.0 0.00 0.00 0.00 67 1017.6
20260902220504 77 197 4.0 17.0 0.00 0.00 0.00 69 1017.8
20260902220003 77 222 6.0 17.0 0.00 0.00 0.00 69 1018.2
20260902215504 77 174 4.0 9.0 0.00 0.00 0.00 70 1018.1
20260902215003 77 53 1.0 9.0 0.00 0.00 0.00 70 1018.0
20260902214503 77 56 1.0 13.0 0.00 0.00 0.00 69 1017.7
20260902214003 77 44 5.0 13.0 0.00 0.00 0.00 69 1017.3
20260902213503 77 301 2.0 11.0 0.00 0.00 0.00 70 1017.3
20260902213004 77 324 2.0 11.0 0.00 0.00 0.00 69 1017.3
20260902212503 76 275 3.0 8.0 0.00 0.00 0.00 69 1017.1
20260902212003 76 291 3.0 8.0 0.00 0.00 0.00 68 1016.7
20260902211503 76 71 2.0 8.0 0.00 0.00 0.00 68 1016.5
20260902211004 75 131 2.0 9.0 0.00 0.00 0.00 68 1016.2
20260902210503 75 123 4.0 9.0 0.00 0.00 0.00 69 1016.5
20260902210004 76 84 4.0 8.0 0.00 0.00 0.00 68 1016.6
20260902205503 76 66 2.0 8.0 0.00 0.00 0.00 67 1016.7
20260902205003 77 89 2.0 8.0 0.00 0.00 0.00 66 1016.8
20260902204504 77 79 2.0 7.0 0.00 0.00 0.00 66 1017.0
20260902204004 77 18 2.0 7.0 0.00 0.00 0.00 66 1016.7
20260902203503 77 51 2.0 8.0 0.00 0.00 0.00 64 1016.6
20260902203003 77 89 1.0 11.0 0.00 0.00 0.00 62 1016.5
20260902202503 78 140 4.0 16.0 0.00 0.00 0.00 59 1016.5
20260902202004 80 158 6.0 16.0 0.00 0.00 0.00 55 1016.5
20260902201503 82 172 10.0 15.0 0.00 0.00 0.00 51 1016.6
20260902201003 83 237 3.0 5.0 0.00 0.00 0.00 57 1016.6
20260902200503 83 0 0.0 4.0 0.00 0.00 0.00 58 1016.5
20260902200004 83 0 0.0 4.0 0.00 0.00 0.00 58 1016.2
20260902195503 83 0 0.0 3.0 0.00 0.00 0.00 58 1016.0
20260902195003 83 0 0.0 4.0 0.00 0.00 0.00 59 1015.9
20260902194504 83 215 2.0 4.0 0.00 0.00 0.00 59 1015.9
20260902194003 83 0 0.0 2.0 0.00 0.00 0.00 58 1016.0
20260902193503 82 0 0.0 2.0 0.00 0.00 0.00 57 1016.0
20260902193003 83 0 0.0 2.0 0.00 0.00 0.00 56 1015.9
20260902192504 83 0 0.0 5.0 0.00 0.00 0.00 55 1015.9
20260902192004 83 128 1.0 5.0 0.00 0.00 0.00 53 1016.0
20260902191503 84 119 1.0 4.0 0.00 0.00 0.00 51 1015.8
20260902191003 85 18 1.0 6.0 0.00 0.00 0.00 49 1015.9
20260902190503 85 0 0.0 8.0 0.00 0.00 0.00 47 1015.8
20260902190003 86 138 2.0 8.0 0.00 0.00 0.00 45 1015.6
20260902185504 86 101 2.0 6.0 0.00 0.00 0.00 44 1015.7
20260902185003 86 22 1.0 4.0 0.00 0.00 0.00 45 1015.7
20260902184503 86 302 2.0 4.0 0.00 0.00 0.00 46 1015.6
20260902184004 86 0 0.0 4.0 0.00 0.00 0.00 46 1015.7
20260902183503 86 0 0.0 3.0 0.00 0.00 0.00 47 1015.9
20260902183003 86 0 0.0 4.0 0.00 0.00 0.00 47 1015.9
20260902182504 86 0 0.0 4.0 0.00 0.00 0.00 46 1015.9
20260902182004 86 0 0.0 6.0 0.00 0.00 0.00 45 1015.9
20260902181503 86 0 0.0 6.0 0.00 0.00 0.00 45 1015.7
20260902181003 87 129 2.0 4.0 0.00 0.00 0.00 44 1015.7
20260902180503 87 97 2.0 3.0 0.00 0.00 0.00 45 1015.5
20260902180005 87 0 0.0 4.0 0.00 0.00 0.00 47 1015.5
20260902175504 87 0 0.0 4.0 0.00 0.00 0.00 48 1015.5
20260902175004 86 0 0.0 4.0 0.00 0.00 0.00 49 1015.4
20260902174503 86 123 3.0 5.0 0.00 0.00 0.00 50 1015.2
20260902174003 86 0 0.0 5.0 0.00 0.00 0.00 51 1015.2
20260902173503 86 130 1.0 5.0 0.00 0.00 0.00 51 1015.3
20260902173003 87 137 1.0 5.0 0.00 0.00 0.00 52 1015.2
20260902172503 87 122 1.0 5.0 0.00 0.00 0.00 52 1015.2
20260902172003 87 0 0.0 5.0 0.00 0.00 0.00 52 1015.1
20260902171504 87 0 0.0 6.0 0.00 0.00 0.00 51 1015.1
20260902171004 87 130 2.0 6.0 0.00 0.00 0.00 50 1014.9
20260902170503 87 141 1.0 6.0 0.00 0.00 0.00 49 1014.8
20260902170003 87 0 0.0 5.0 0.00 0.00 0.00 48 1014.7
20260902165504 87 0 0.0 5.0 0.00 0.00 0.00 48 1014.9
20260902165003 87 0 0.0 7.0 0.00 0.00 0.00 47 1014.8
20260902164503 87 137 2.0 7.0 0.00 0.00 0.00 46 1014.7
20260902164003 88 229 2.0 6.0 0.00 0.00 0.00 47 1014.6
20260902163504 88 0 0.0 8.0 0.00 0.00 0.00 47 1014.7
20260902163003 88 125 1.0 8.0 0.00 0.00 0.00 46 1014.6
20260902162504 88 145 3.0 7.0 0.00 0.00 0.00 46 1014.7
20260902162003 88 145 3.0 6.0 0.00 0.00 0.00 47 1014.6
20260902161504 88 169 1.0 6.0 0.00 0.00 0.00 46 1014.5
20260902161003 88 290 3.0 11.0 0.00 0.00 0.00 46 1014.4
20260902160503 89 293 2.0 11.0 0.00 0.00 0.00 45 1014.6
20260902160003 89 296 2.0 8.0 0.00 0.00 0.00 45 1014.6
20260902155504 89 277 1.0 7.0 0.00 0.00 0.00 44 1014.7
20260902155004 90 262 1.0 7.0 0.00 0.00 0.00 43 1014.8
20260902154503 90 261 2.0 9.0 0.00 0.00 0.00 42 1014.8
20260902154004 90 267 1.0 9.0 0.00 0.00 0.00 42 1014.9
20260902153504 90 227 4.0 8.0 0.00 0.00 0.00 40 1014.7
20260902153003 91 157 2.0 8.0 0.00 0.00 0.00 39 1014.6
20260902152504 91 139 4.0 8.0 0.00 0.00 0.00 39 1014.5
20260902152004 92 196 1.0 7.0 0.00 0.00 0.00 40 1014.5
20260902151503 92 159 2.0 7.0 0.00 0.00 0.00 37 1014.4
20260902151004 94 145 4.0 7.0 0.00 0.00 0.00 35 1014.3
20260902150503 94 152 2.0 7.0 0.00 0.00 0.00 35 1014.3
20260902150003 95 297 2.0 8.0 0.00 0.00 0.00 35 1014.3
20260902145503 94 257 2.0 10.0 0.00 0.00 0.00 35 1014.5
20260902145004 95 253 4.0 10.0 0.00 0.00 0.00 35 1014.6
20260902144505 95 258 2.0 11.0 0.00 0.00 0.00 32 1014.6
20260902144003 95 241 1.0 11.0 0.00 0.00 0.00 32 1014.5
20260902143504 96 246 4.0 9.0 0.00 0.00 0.00 30 1014.6
20260902143003 95 285 4.0 9.0 0.00 0.00 0.00 30 1014.6
20260902142504 94 286 2.0 8.0 0.00 0.00 0.00 31 1014.7
20260902142003 94 280 4.0 8.0 0.00 0.00 0.00 31 1014.6
20260902141504 94 22 2.0 5.0 0.00 0.00 0.00 32 1014.5
20260902141004 94 90 1.0 5.0 0.00 0.00 0.00 33 1014.7
20260902140504 94 197 2.0 7.0 0.00 0.00 0.00 32 1014.7
20260902140004 95 287 3.0 7.0 0.00 0.00 0.00 31 1014.9
20260902135503 96 264 3.0 8.0 0.00 0.00 0.00 31 1014.9
20260902135003 97 245 2.0 8.0 0.00 0.00 0.00 30 1015.0
20260902134504 98 246 2.0 8.0 0.00 0.00 0.00 29 1015.1
20260902134004 99 231 2.0 6.0 0.00 0.00 0.00 27 1015.2
20260902133503 99 248 3.0 8.0 0.00 0.00 0.00 27 1015.2
20260902133004 99 291 3.0 8.0 0.00 0.00 0.00 26 1015.3
20260902132503 99 282 2.0 10.0 0.00 0.00 0.00 27 1015.3
20260902132004 99 292 3.0 10.0 0.00 0.00 0.00 26 1015.3
20260902131503 99 278 1.0 8.0 0.00 0.00 0.00 26 1015.3
20260902131003 99 238 4.0 8.0 0.00 0.00 0.00 24 1015.1
20260902130503 99 253 3.0 8.0 0.00 0.00 0.00 24 1015.1
20260902130004 99 278 2.0 8.0 0.00 0.00 0.00 24 1015.2
20260902125503 100 277 4.0 8.0 0.00 0.00 0.00 23 1015.2
20260902125003 100 0 0.0 8.0 0.00 0.00 0.00 25 1015.3
20260902124503 100 283 2.0 8.0 0.00 0.00 0.00 26 1015.4
20260902124004 100 291 2.0 9.0 0.00 0.00 0.00 26 1015.5
20260902123503 100 277 1.0 9.0 0.00 0.00 0.00 26 1015.7
20260902123003 99 247 1.0 8.0 0.00 0.00 0.00 28 1015.7
20260902122503 98 258 3.0 8.0 0.00 0.00 0.00 28 1015.7
20260902122004 99 273 2.0 10.0 0.00 0.00 0.00 28 1015.8
20260902121503 99 245 4.0 10.0 0.00 0.00 0.00 28 1015.9
20260902121003 100 122 1.0 7.0 0.00 0.00 0.00 29 1016.0
20260902120504 100 98 1.0 8.0 0.00 0.00 0.00 29 1016.1
20260902120003 99 278 1.0 8.0 0.00 0.00 0.00 30 1016.1
20260902115504 99 286 4.0 8.0 0.00 0.00 0.00 30 1016.2
20260902115003 99 265 2.0 7.0 0.00 0.00 0.00 30 1016.3
20260902114503 99 271 2.0 7.0 0.00 0.00 0.00 29 1016.4
20260902114003 99 284 2.0 7.0 0.00 0.00 0.00 28 1016.5
20260902113503 99 280 2.0 6.0 0.00 0.00 0.00 28 1016.6
20260902113004 98 0 0.0 6.0 0.00 0.00 0.00 29 1016.6
20260902112503 98 315 1.0 6.0 0.00 0.00 0.00 29 1016.7
20260902112003 97 288 2.0 8.0 0.00 0.00 0.00 29 1016.7
20260902111503 97 0 0.0 8.0 0.00 0.00 0.00 29 1016.8
20260902111004 97 318 5.0 9.0 0.00 0.00 0.00 26 1016.9
20260902110504 97 306 2.0 11.0 0.00 0.00 0.00 27 1016.8
20260902110005 97 284 4.0 11.0 0.00 0.00 0.00 27 1017.0
20260902105503 98 269 4.0 8.0 0.00 0.00 0.00 26 1017.0
20260902105003 98 254 4.0 6.0 0.00 0.00 0.00 27 1017.0
20260902104504 98 274 2.0 7.0 0.00 0.00 0.00 28 1017.0
20260902104004 99 288 2.0 7.0 0.00 0.00 0.00 26 1017.1
20260902103503 99 278 3.0 6.0 0.00 0.00 0.00 27 1017.0
20260902103003 99 240 2.0 7.0 0.00 0.00 0.00 30 1016.9
20260902102503 98 102 2.0 7.0 0.00 0.00 0.00 31 1017.0
20260902102004 98 91 1.0 6.0 0.00 0.00 0.00 31 1017.1
20260902101503 97 150 2.0 8.0 0.00 0.00 0.00 32 1017.0
20260902101003 97 169 2.0 8.0 0.00 0.00 0.00 33 1017.2
20260902100504 98 129 2.0 8.0 0.00 0.00 0.00 33 1017.2
20260902100004 97 136 1.0 8.0 0.00 0.00 0.00 34 1017.2
20260902095503 97 123 2.0 7.0 0.00 0.00 0.00 34 1017.2
20260902095003 97 43 2.0 7.0 0.00 0.00 0.00 35 1017.3
20260902094503 97 348 2.0 5.0 0.00 0.00 0.00 35 1017.4
20260902094004 97 359 3.0 5.0 0.00 0.00 0.00 35 1017.4
20260902093503 97 128 2.0 5.0 0.00 0.00 0.00 36 1017.5
20260902093003 97 121 2.0 6.0 0.00 0.00 0.00 35 1017.5
20260902092504 97 15 1.0 6.0 0.00 0.00 0.00 36 1017.6
20260902092004 96 141 1.0 6.0 0.00 0.00 0.00 37 1017.6
20260902091504 96 118 1.0 6.0 0.00 0.00 0.00 37 1017.6
20260902091003 96 71 3.0 6.0 0.00 0.00 0.00 37 1017.6
20260902090504 95 0 0.0 5.0 0.00 0.00 0.00 40 1017.7
20260902090004 95 234 1.0 6.0 0.00 0.00 0.00 39 1017.5
20260902085503 94 0 0.0 7.0 0.00 0.00 0.00 40 1017.7
20260902085003 94 138 3.0 7.0 0.00 0.00 0.00 39 1017.6
20260902084504 94 155 4.0 6.0 0.00 0.00 0.00 38 1017.7
20260902084004 95 204 2.0 4.0 0.00 0.00 0.00 39 1017.6
20260902083503 95 0 0.0 5.0 0.00 0.00 0.00 40 1017.6
20260902083003 94 0 0.0 6.0 0.00 0.00 0.00 40 1017.5
20260902082503 94 0 0.0 6.0 0.00 0.00 0.00 41 1017.5
20260902082004 94 129 4.0 6.0 0.00 0.00 0.00 41 1017.6
20260902081503 93 133 2.0 4.0 0.00 0.00 0.00 41 1017.6
20260902081003 94 147 2.0 4.0 0.00 0.00 0.00 41 1017.5
20260902080503 94 0 0.0 3.0 0.00 0.00 0.00 41 1017.5
20260902080003 93 10 2.0 4.0 0.00 0.00 0.00 40 1017.5
20260902075504 92 0 0.0 4.0 0.00 0.00 0.00 41 1017.5
20260902075003 92 239 1.0 4.0 0.00 0.00 0.00 41 1017.6
20260902074503 92 0 0.0 4.0 0.00 0.00 0.00 42 1017.6
20260902074003 92 227 2.0 4.0 0.00 0.00 0.00 42 1017.5
20260902073504 92 0 0.0 4.0 0.00 0.00 0.00 42 1017.5
20260902073004 91 0 0.0 4.0 0.00 0.00 0.00 44 1017.3
20260902072503 91 259 2.0 4.0 0.00 0.00 0.00 44 1017.3
20260902072004 91 274 2.0 4.0 0.00 0.00 0.00 43 1017.4
20260902071503 90 0 0.0 2.0 0.00 0.00 0.00 45 1017.3
20260902071003 90 0 0.0 3.0 0.00 0.00 0.00 46 1017.3
20260902070504 89 0 0.0 3.0 0.00 0.00 0.00 46 1017.4
20260902070004 89 136 1.0 3.0 0.00 0.00 0.00 46 1017.4
20260902065503 89 0 0.0 3.0 0.00 0.00 0.00 47 1017.4
20260902065004 89 135 1.0 4.0 0.00 0.00 0.00 47 1017.4
20260902064504 89 0 0.0 4.0 0.00 0.00 0.00 48 1017.4
20260902064003 89 0 0.0 4.0 0.00 0.00 0.00 49 1017.3
20260902063504 88 0 0.0 4.0 0.00 0.00 0.00 50 1017.3
20260902063004 87 0 0.0 2.0 0.00 0.00 0.00 52 1017.3
20260902062503 87 135 1.0 2.0 0.00 0.00 0.00 53 1017.3
20260902062003 86 0 0.0 3.0 0.00 0.00 0.00 55 1017.2
20260902061503 85 0 0.0 4.0 0.00 0.00 0.00 55 1017.3
20260902061003 85 238 1.0 4.0 0.00 0.00 0.00 56 1017.2
20260902060503 85 253 1.0 3.0 0.00 0.00 0.00 57 1017.3
20260902060004 85 357 1.0 2.0 0.00 0.00 0.00 58 1017.4
20260902055503 84 0 0.0 2.0 0.00 0.00 0.00 61 1017.2
20260902055004 83 0 0.0 2.0 0.00 0.00 0.00 62 1017.2
20260902054503 82 0 0.0 2.0 0.00 0.00 0.00 62 1017.2
20260902054003 82 0 0.0 2.0 0.00 0.00 0.00 63 1017.2
20260902053503 81 55 1.0 3.0 0.00 0.00 0.00 63 1017.2
20260902053004 81 17 1.0 4.0 0.00 0.00 0.00 64 1017.3
20260902052503 81 27 2.0 4.0 0.00 0.00 0.00 64 1017.3
20260902052003 80 31 2.0 4.0 0.00 0.00 0.00 64 1017.4
20260902051503 80 39 1.0 4.0 0.00 0.00 0.00 65 1017.5
20260902051004 80 0 0.0 4.0 0.00 0.00 0.00 66 1017.3
20260902050504 79 0 0.0 4.0 0.00 0.00 0.00 66 1017.3
20260902050005 79 32 1.0 4.0 0.00 0.00 0.00 67 1017.3
20260902045503 79 24 1.0 4.0 0.00 0.00 0.00 67 1017.3
20260902045004 79 40 1.0 4.0 0.00 0.00 0.00 67 1017.3
20260902044503 78 21 2.0 4.0 0.00 0.00 0.00 67 1017.2
20260902044004 79 281 1.0 4.0 0.00 0.00 0.00 68 1017.1
20260902043503 78 0 0.0 3.0 0.00 0.00 0.00 68 1017.1
20260902043004 78 0 0.0 4.0 0.00 0.00 0.00 68 1017.1
20260902042504 78 22 1.0 4.0 0.00 0.00 0.00 68 1017.1
20260902042003 78 0 0.0 3.0 0.00 0.00 0.00 68 1017.1
20260902041504 78 0 0.0 3.0 0.00 0.00 0.00 68 1017.1
20260902041003 78 0 0.0 4.0 0.00 0.00 0.00 68 1017.1
20260902040504 78 0 0.0 4.0 0.00 0.00 0.00 68 1017.0
20260902040003 78 25 2.0 4.0 0.00 0.00 0.00 68 1017.1
20260902035503 78 27 2.0 4.0 0.00 0.00 0.00 68 1016.9
20260902035003 78 17 2.0 4.0 0.00 0.00 0.00 68 1017.0
20260902034503 78 17 2.0 4.0 0.00 0.00 0.00 68 1016.9
20260902034004 78 3 1.0 3.0 0.00 0.00 0.00 68 1016.9
20260902033503 78 0 0.0 3.0 0.00 0.00 0.00 68 1016.8